Simultaneous Nadir Overpasses (SNOs) Predictions

Prediction of SNOs between METOP-B and TERRA Satellite Orbit:

Table of predicted SNOs for the next 14.0 days since TLE Epoch: 10/18/2015
Index Date (METOP-B) Time (METOP-B) Lat,Lon (METOP-B) SZA (METOP-B ) Date (TERRA) Time (TERRA) Lat,Lon (TERRA) SZA (TERRA ) Distance(km) Time Diff (sec)
1 10/19/2015 20:04:01 -81.32, 106.27 85.47 10/19/2015 20:04:40 -81.32, 106.42 85.43 2.56 39
2 10/19/2015 20:54:41 81.33, -86.00 94.60 10/19/2015 20:54:06 81.33, -85.82 94.61 3.03 35
3 10/22/2015 15:38:21 -81.33, 173.13 84.40 10/22/2015 15:38:57 -81.33, 172.96 84.40 2.79 36
4 10/22/2015 16:29:01 81.33, -19.16 95.66 10/22/2015 16:28:23 81.33, -19.30 95.63 2.41 38
5 10/25/2015 11:12:41 -81.33,-120.44 83.41 10/25/2015 11:13:13 -81.33,-120.59 83.41 2.52 32
6 10
